Location: *
(18.5200°S, 46.4500°E)
Time: 07:21:32
(UTC+00:00)

Stardust Del rocket - Pass Details

Date: 19 July 2019
Orbit: 287 x 4250 km, 22.5° (Epoch: 23 August)

Event Time Altitude Azimuth Distance (km) Brightness Sun altitude
Rises 16:08:44 0° 257° (WSW) 3,832 8.6 -21.9°
Reaches altitude 10° 16:12:20 10° 257° (WSW) 2,306 7.3 -22.7°
Enters shadow 16:16:42 64° 263° (W) 546 3.4 -23.7°
